User: anonymous
Location: Unspecified
(0.0000°N, 0.0000°E)
Time: 21:48:42
(UTC+02:00)
Language:

Cosmos 1538 Rocket - Orbit

View from above orbital plane
View from above orbital plane
View from above satellite
View from above satellite

Ground track
Ground track

The orbit data is extracted from the following two-line orbital elements,

1 14760U 84019B   14234.46033775  .00000176  00000-0  70056-4 0  3900
2 14760 074.0438 210.4940 0028961 321.5302 173.0206 14.35520978595808
Epoch (UTC): 22 August 2014 11:02:53
Eccentricity: 0.0028961
inclination: 74.0438°
perigee height: 752 km
apogee height: 794 km
right ascension of ascending node: 210.4940°
argument of perigee: 321.5302°
revolutions per day: 14.35520978
mean anomaly at epoch: 173.0206°
orbit number at epoch: 59580

The dashed part of the orbit path shows where the satellite is in the earth's shadow,  

DLR